Detroit Lakes, MN

3:09 PM CDT on September 26, 2016 (GMT -0500)
Detroit Lakes

Weather History for KDTL - March, 2013

Change the Weather History Date:

Tuesday, March 5, 2013

  Actual Average Record
Temperature  
Mean Temperature 24 °F -  
Max Temperature 28 °F 31 °F 53 °F (1987)
Min Temperature 21 °F 5 °F -25 °F (1972)
Degree Days  
Heating Degree Days 40    
Moisture  
Dew Point 21 °F    
Average Humidity 91    
Maximum Humidity 100    
Minimum Humidity 80    
Precipitation  
Precipitation 0.04 in - - ()
Sea Level Pressure  
Sea Level Pressure 30.17 in    
Wind  
Wind Speed 9 mph (North)    
Max Wind Speed 23 mph    
Max Gust Speed 26 mph    
Visibility 7 miles    
Events Snow    
Averages and records for this station are not official NWS values.
T = Trace of Precipitation, MM = Missing Value Source: NWS Daily Summary

Daily Weather History Graph

Daily Weather History Graph

Search for Another Location

Airport or City:

Trip Planner

Search our weather history database for the weather conditions in past years. The results will help you decide how hot, cold, wet, or windy it might be!

Date:

Astronomy

Mar. 05, 2013 Rise Set
Actual Time 6:55 AM CST 6:15 PM CST
Civil Twilight 6:24 AM CST 6:45 PM CST
Nautical Twilight 5:49 AM CST 7:20 PM CST
Astronomical Twilight 5:14 AM CST 7:56 PM CST
Moon 2:25 AM CST (3/5) 11:38 AM CST (3/5)
Length of Visible Light 12h 20m
Length of Day
11h 20m
Last Quarter, 40% of the Moon is Illuminated
Mar 5
Last Quarter
Mar 11
New
Mar 19
First Quarter
Mar 27
Full
Apr 2
Last Quarter

Hourly Weather History & Observations

Time (CST) Temp. Windchill Dew Point Humidity Pressure Visibility Wind Dir Wind Speed Gust Speed Precip Events Conditions
12:35 AM 23.0 °F 14.7 °F 23.0 °F 100% 29.96 in 2.5 mi ESE 6.9 mph - N/A Snow Light Snow
12:55 AM 23.0 °F 17.0 °F 23.0 °F 100% 29.96 in 1.8 mi East 4.6 mph - 0.01 in Snow Light Snow
1:16 AM 23.0 °F 15.8 °F 23.0 °F 100% 29.97 in 2.5 mi East 5.8 mph - N/A Snow Light Snow
1:35 AM 23.0 °F 17.0 °F 23.0 °F 100% 29.98 in 2.0 mi East 4.6 mph - N/A Snow Light Snow
1:55 AM 23.0 °F 17.0 °F 23.0 °F 100% 29.99 in 1.8 mi East 4.6 mph - N/A Snow Light Snow
2:16 AM 23.0 °F 15.8 °F 23.0 °F 100% 29.98 in 1.5 mi ENE 5.8 mph - 0.01 in Snow Light Snow
2:35 AM 23.0 °F 15.8 °F 23.0 °F 100% 29.98 in 2.0 mi ENE 5.8 mph - 0.01 in Snow Light Snow
2:55 AM 23.0 °F 14.7 °F 23.0 °F 100% 29.99 in 1.5 mi ENE 6.9 mph - 0.01 in Snow Light Snow
3:16 AM 23.0 °F 17.0 °F 23.0 °F 100% 29.99 in 2.0 mi ENE 4.6 mph - N/A Snow Light Snow
3:35 AM 23.0 °F 15.8 °F 23.0 °F 100% 30.00 in 2.5 mi ENE 5.8 mph - N/A Snow Light Snow
3:55 AM 23.0 °F 15.8 °F 23.0 °F 100% 30.01 in 1.8 mi NE 5.8 mph - N/A Snow Light Snow
4:16 AM 23.0 °F 15.8 °F 23.0 °F 100% 30.01 in 1.8 mi NNE 5.8 mph - N/A Snow Light Snow
4:35 AM 23.0 °F 17.0 °F 23.0 °F 100% 30.01 in 1.5 mi NNE 4.6 mph - N/A Snow Light Snow
4:55 AM 23.0 °F 17.0 °F 23.0 °F 100% 30.02 in 2.5 mi North 4.6 mph - N/A Snow Light Snow
5:16 AM 23.0 °F 17.0 °F 23.0 °F 100% 30.03 in 3.0 mi NNE 4.6 mph - N/A Snow Light Snow
5:35 AM 23.0 °F 14.7 °F 23.0 °F 100% 30.04 in 2.5 mi NNE 6.9 mph - N/A Snow Light Snow
6:56 AM 23.0 °F 13.9 °F 21.2 °F 93% 30.07 in 4.0 mi NNE 8.1 mph - N/A Snow Light Snow
7:15 AM 23.0 °F 13.9 °F 21.2 °F 93% 30.08 in 3.0 mi NNE 8.1 mph - N/A Snow Light Snow
7:36 AM 23.0 °F 14.7 °F 21.2 °F 93% 30.09 in 2.0 mi NNE 6.9 mph - N/A Snow Light Snow
7:56 AM 23.0 °F 15.8 °F 21.2 °F 93% 30.10 in 1.5 mi NNE 5.8 mph - N/A Snow Light Snow
8:15 AM 23.0 °F 14.7 °F 21.2 °F 93% 30.11 in 1.8 mi NNE 6.9 mph - N/A Snow Light Snow
8:36 AM 23.0 °F 14.7 °F 21.2 °F 93% 30.11 in 4.0 mi NNE 6.9 mph - N/A   Overcast
8:56 AM 23.0 °F 13.9 °F 21.2 °F 93% 30.12 in 4.0 mi NNE 8.1 mph - N/A Snow Light Snow
9:15 AM 24.8 °F 16.1 °F 21.2 °F 86% 30.12 in 3.0 mi NNE 8.1 mph - N/A Snow Light Snow
9:36 AM 24.8 °F 17.9 °F 21.2 °F 86% 30.13 in 2.0 mi NNE 5.8 mph - N/A Snow Light Snow
9:56 AM 24.8 °F 16.9 °F 23.0 °F 93% 30.13 in 2.5 mi NNE 6.9 mph - N/A Snow Light Snow
10:15 AM 26.6 °F 18.2 °F 23.0 °F 86% 30.14 in 3.0 mi NNE 8.1 mph - N/A Snow Light Snow
10:36 AM 26.6 °F 21.2 °F 23.0 °F 86% 30.15 in 5.0 mi North 4.6 mph - N/A Snow Light Snow
10:56 AM 26.6 °F 20.0 °F 23.0 °F 86% 30.15 in 5.0 mi NNE 5.8 mph - N/A Snow Light Snow
11:15 AM 26.6 °F 17.5 °F 23.0 °F 86% 30.16 in 5.0 mi North 9.2 mph - 0.01 in   Overcast
11:36 AM 26.6 °F 19.1 °F 23.0 °F 86% 30.16 in 10.0 mi North 6.9 mph - 0.01 in   Mostly Cloudy
11:56 AM 26.6 °F 16.8 °F 23.0 °F 86% 30.17 in 10.0 mi NNW 10.4 mph - N/A   Scattered Clouds
12:15 PM 28.4 °F 19.7 °F 23.0 °F 80% 30.17 in 10.0 mi NNW 9.2 mph - 0.01 in   Mostly Cloudy
12:36 PM 26.6 °F 15.2 °F 23.0 °F 86% 30.18 in 10.0 mi NNW 13.8 mph - 0.01 in   Overcast
12:56 PM 26.6 °F 13.8 °F 23.0 °F 86% 30.18 in 10.0 mi NNW 17.3 mph - N/A   Overcast
1:15 PM 26.6 °F 13.8 °F 21.2 °F 80% 30.19 in 10.0 mi NNW 17.3 mph - N/A   Overcast
1:36 PM 26.6 °F 15.2 °F 23.0 °F 86% 30.19 in 10.0 mi NNW 13.8 mph - N/A   Mostly Cloudy
1:56 PM 26.6 °F 12.0 °F 21.2 °F 80% 30.20 in 7.0 mi NNW 23.0 mph - N/A Snow Light Snow
2:15 PM 24.8 °F 11.1 °F 21.2 °F 86% 30.20 in 3.0 mi NNW 18.4 mph - N/A Snow Light Snow
2:36 PM 24.8 °F 10.7 °F 21.2 °F 86% 30.20 in 7.0 mi NNW 19.6 mph - N/A   Mostly Cloudy
2:56 PM 26.6 °F 13.8 °F 21.2 °F 80% 30.20 in 10.0 mi NNW 17.3 mph - N/A   Scattered Clouds
3:15 PM 26.6 °F 13.4 °F 21.2 °F 80% 30.21 in 10.0 mi NNW 18.4 mph - N/A   Clear
3:36 PM 24.8 °F 11.5 °F 21.2 °F 86% 30.22 in 10.0 mi NNW 17.3 mph - N/A   Scattered Clouds
3:56 PM 24.8 °F 11.1 °F 21.2 °F 86% 30.23 in 10.0 mi NNW 18.4 mph 26.5 mph N/A   Scattered Clouds
4:15 PM 24.8 °F 11.5 °F 21.2 °F 86% 30.24 in 10.0 mi NNW 17.3 mph 23.0 mph N/A   Clear
4:36 PM 24.8 °F 12.4 °F 21.2 °F 86% 30.24 in 10.0 mi North 15.0 mph 21.9 mph N/A   Mostly Cloudy
4:56 PM 23.0 °F 8.7 °F 21.2 °F 93% 30.25 in 10.0 mi North 18.4 mph - N/A   Mostly Cloudy
5:15 PM 23.0 °F 9.2 °F 19.4 °F 86% 30.26 in 10.0 mi NNW 17.3 mph - N/A   Clear
5:35 PM 23.0 °F 10.1 °F 19.4 °F 86% 30.27 in 10.0 mi NNW 15.0 mph 21.9 mph N/A   Scattered Clouds
5:56 PM 23.0 °F 10.1 °F 19.4 °F 86% 30.28 in 10.0 mi NNW 15.0 mph - N/A   Mostly Cloudy
6:15 PM 23.0 °F 11.1 °F 19.4 °F 86% 30.28 in 10.0 mi NNW 12.7 mph - N/A   Overcast
6:35 PM 23.0 °F 11.1 °F 19.4 °F 86% 30.29 in 10.0 mi NNW 12.7 mph - N/A   Overcast
6:56 PM 23.0 °F 12.4 °F 19.4 °F 86% 30.29 in 10.0 mi NNW 10.4 mph - N/A   Overcast
7:15 PM 23.0 °F 12.4 °F 19.4 °F 86% 30.29 in 10.0 mi NNW 10.4 mph - N/A   Overcast
7:36 PM 23.0 °F 11.7 °F 19.4 °F 86% 30.29 in 10.0 mi NNW 11.5 mph - N/A   Overcast
7:55 PM 23.0 °F 10.6 °F 19.4 °F 86% 30.30 in 10.0 mi NNW 13.8 mph - N/A   Overcast
8:15 PM 23.0 °F 11.1 °F 19.4 °F 86% 30.30 in 10.0 mi NNW 12.7 mph - N/A   Overcast
8:36 PM 21.2 °F 8.3 °F 19.4 °F 93% 30.30 in 10.0 mi North 13.8 mph - N/A   Overcast
8:55 PM 21.2 °F 8.9 °F 19.4 °F 93% 30.31 in 10.0 mi NNW 12.7 mph - N/A   Overcast
9:15 PM 21.2 °F 11.7 °F 19.4 °F 93% 30.31 in 10.0 mi NNW 8.1 mph - N/A   Overcast
9:35 PM 21.2 °F 10.9 °F 19.4 °F 93% 30.32 in 10.0 mi NNW 9.2 mph - N/A   Overcast
9:55 PM 21.2 °F 12.6 °F 19.4 °F 93% 30.32 in 10.0 mi NNW 6.9 mph - N/A   Overcast
10:16 PM 21.2 °F 10.1 °F 19.4 °F 93% 30.32 in 10.0 mi NNW 10.4 mph - N/A   Overcast
10:35 PM 21.2 °F 11.7 °F 19.4 °F 93% 30.33 in 10.0 mi NW 8.1 mph - N/A   Overcast
10:55 PM 21.2 °F 11.7 °F 19.4 °F 93% 30.34 in 10.0 mi NW 8.1 mph - N/A   Overcast
11:16 PM 21.2 °F 11.7 °F 19.4 °F 93% 30.34 in 10.0 mi NNW 8.1 mph - N/A   Overcast
11:35 PM 21.2 °F 12.6 °F 19.4 °F 93% 30.34 in 10.0 mi NW 6.9 mph - N/A Snow Light Snow
11:55 PM 21.2 °F 11.7 °F 19.4 °F 93% 30.34 in 10.0 mi NW 8.1 mph - N/A Snow Light Snow